GFSWCAN_500_rhum_162.txt.gz
RH
49 74 100 100 100 88 73 59 96 100 69 73 90 76 78 80 99 100 95 93 100 100 65 89 64 33 42 31 30 26 28 28 24 23 42 85 93 67 71 80 76 92 100 100 100 96 87 87 88 90 84 71 70 65
37 68 82 78 82 66 78 98 100 100 98 92 92 100 100 93 100 100 98 98 100 100 89 68 85 100 100 98 33 32 44 34 37 44 52 69 100 84 91 92 94 99 97 100 100 100 98 76 86 85 87 74 71 74
43 38 53 63 62 74 99 100 100 100 100 98 72 68 84 100 100 98 100 100 96 76 76 57 72 100 98 88 100 69 37 35 28 36 40 66 78 88 98 94 100 100 99 86 83 74 84 100 97 85 81 80 81 72
49 64 76 82 92 100 100 100 100 100 93 59 44 48 52 90 99 93 97 100 84 51 33 39 49 77 100 98 78 99 56 74 74 52 44 90 95 97 100 99 100 100 92 79 80 90 93 84 78 73 80 81 70 24
100 77 47 43 56 67 64 52 46 43 41 39 37 36 48 59 66 62 71 67 55 87 32 28 61 98 95 100 100 100 98 100 100 54 44 85 97 96 99 100 99 97 93 99 100 84 70 74 71 70 68 49 14 20
100 100 100 94 55 46 32 34 38 38 40 36 34 31 28 52 55 34 54 87 100 99 50 41 70 96 100 100 100 90 100 100 100 100 96 77 99 100 98 96 100 100 100 88 77 74 68 63 72 53 16 11 30 20
100 100 100 100 100 96 88 98 99 88 60 44 34 20 26 54 88 100 100 100 94 99 64 62 97 100 99 100 88 100 100 100 100 100 100 100 100 100 96 100 100 97 80 74 68 63 75 68 27 10 28 30 20 24
100 96 99 100 100 100 100 100 100 100 100 75 33 17 76 100 100 100 97 96 84 90 97 100 100 100 100 100 100 100 100 100 94 96 99 100 99 100 92 100 84 76 70 66 66 74 55 16 18 33 23 25 27 26
90 98 100 100 100 100 100 100 99 100 100 95 95 28 100 100 91 75 100 100 100 100 100 100 100 100 100 100 100 100 98 99 100 100 100 100 100 100 100 91 94 89 76 70 71 33 13 47 33 24 29 30 26 22
75 87 97 100 100 100 100 100 100 100 100 34 17 20 95 86 83 96 100 100 89 86 95 100 100 100 100 100 100 100 100 100 100 100 100 100 100 100 100 91 86 74 75 69 14 36 50 24 29 33 32 27 24 16
30 25 33 86 100 92 91 99 100 96 32 9 14 51 89 94 80 71 69 82 100 85 100 100 100 100 100 100 100 100 100 100 100 100 100 100 100 100 99 93 81 73 17 26 54 30 27 34 37 34 29 26 18 8
22 56 66 87 65 69 75 63 27 9 7 9 31 50 64 67 47 57 62 62 74 99 97 99 100 100 99 99 100 100 100 100 100 100 97 96 99 97 88 66 22 34 54 32 24 34 40 40 37 32 28 25 13 7
10 8 8 10 12 16 12 8 8 12 16 31 72 64 54 42 47 39 37 48 68 91 92 100 100 100 90 88 86 95 84 93 92 84 81 87 80 58 37 26 51 39 25 34 42 44 43 39 35 32 30 22 9 7
19 16 12 11 11 11 13 17 24 44 62 52 35 33 34 32 32 30 38 63 97 100 99 100 100 100 100 98 88 75 76 76 73 85 72 43 24 31 41 58 33 35 43 48 48 46 41 38 36 34 32 19 10 7
19 18 19 21 23 25 26 28 32 35 42 31 29 30 30 32 46 53 61 67 68 82 98 100 98 98 99 94 89 88 92 86 94 74 47 32 32 47 42 33 42 50 54 52 46 42 41 41 39 38 35 23 12 9
14 16 15 14 14 17 20 21 26 41 44 47 50 46 46 45 54 60 68 62 54 60 91 99 100 100 100 94 99 100 99 99 50 21 21 39 36 34 49 54 58 58 51 46 44 42 42 42 42 41 40 32 20 12
13 13 14 14 12 11 11 12 12 14 16 24 31 26 28 47 86 100 99 95 95 99 100 99 99 100 98 100 99 100 80 35 25 42 34 27 45 58 64 65 57 52 49 48 48 48 45 44 45 45 43 41 30 17
16 14 16 15 15 14 12 12 11 15 26 30 68 100 100 99 99 100 100 98 97 100 100 100 100 100 100 100 95 66 34 31 42 26 29 55 66 65 58 57 56 56 56 56 54 50 47 46 49 50 51 50 41 23
15 15 21 37 55 60 70 82 93 98 100 100 100 99 96 96 95 92 94 96 99 100 100 99 100 100 87 49 40 36 39 28 21 42 64 58 55 53 54 54 55 61 65 64 61 58 55 53 54 56 58 58 52 29
100 98 100 100 100 100 100 100 100 100 100 100 100 98 90 87 82 80 79 80 91 100 100 100 100 81 50 68 75 63 33 20 34 58 56 50 41 42 46 48 50 62 74 72 69 65 63 62 62 62 62 64 53 26
96 100 100 100 100 100 100 100 100 100 100 95 86 87 80 75 72 71 76 91 100 100 100 100 90 68 78 80 54 27 22 23 28 43 46 40 33 30 39 39 45 71 80 78 72 68 69 70 70 69 70 63 42 26
93 94 99 97 98 100 100 97 98 97 96 92 84 78 73 76 83 88 94 97 100 100 100 96 92 92 86 50 24 20 21 22 23 24 26 27 26 30 34 47 82 88 83 77 74 71 70 72 75 78 75 61 41 32
92 89 91 86 90 94 100 98 97 96 95 91 85 84 84 95 100 100 100 100 100 100 100 98 89 58 28 22 20 19 19 19 19 20 22 27 31 50 89 99 96 89 86 80 75 71 70 75 79 85 76 61 48 36
100 100 100 99 98 100 96 100 97 91 86 82 86 94 100 100 100 100 100 100 100 88 66 55 60 60 51 46 54 51 38 31 30 31 40 76 99 100 100 95 90 84 77 70 69 69 74 79 80 74 64 50 37 30
100 100 100 100 100 97 98 99 100 100 98 98 98 97 100 100 100 100 100 100 97 96 97 97 98 99 99 99 95 92 95 99 100 100 100 100 100 95 86 79 74 70 67 66 66 63 59 54 45 38 32 27 24 26
97 100 99 100 99 100 100 100 99 97 96 97 98 97 95 93 93 96 99 100 100 100 100 100 100 100 100 100 100 100 100 100 100 99 95 87 81 75 70 66 63 61 58 54 49 43 36 30 25 22 21 23 28 38
60 79 94 94 91 96 94 96 98 99 100 100 100 100 100 99 100 100 100 100 100 100 100 100 100 100 100 100 100 100 97 91 86 80 76 70 60 49 41 36 32 30 27 26 25 24 23 23 24 26 35 52 65 82
33 30 30 38 58 78 91 98 100 100 100 100 100 100 100 100 100 100 100 100 100 100 100 100 100 100 100 100 94 89 84 79 67 52 37 28 26 27 26 24 23 22 21 21 23 24 28 40 68 94 99 100 100 100
51 46 40 32 26 26 32 47 68 86 95 99 100 100 100 100 100 100 100 100 100 100 100 100 100 100 98 94 89 78 59 37 32 34 34 31 26 24 25 31 36 33 33 31 32 34 44 98 100 100 100 100 100 100
78 83 76 62 45 35 28 26 33 38 45 56 68 77 90 99 100 100 100 100 100 100 100 100 99 97 90 75 56 49 47 44 35 29 30 34 34 33 38 41 38 40 40 36 36 42 85 100 100 100 100 100 100 100
62 70 78 84 88 83 70 55 54 63 72 80 91 95 98 100 100 100 100 100 100 100 100 99 88 72 62 58 50 40 35 34 34 35 36 34 32 37 42 43 43 47 46 43 41 61 98 100 100 99 100 100 100 100
47 44 59 70 76 80 83 80 79 79 74 73 84 89 100 100 100 100 100 100 100 86 72 66 62 55 48 44 43 44 45 47 47 46 42 40 40 43 50 54 57 52 47 42 58 99 100 100 100 100 100 100 100 100
78 78 80 75 48 38 49 62 67 73 78 83 84 77 81 91 91 75 88 96 93 90 92 88 76 74 75 70 66 64 64 62 59 56 55 56 58 61 60 52 45 44 44 56 94 100 100 100 100 100 100 100 100 100

GFSWCAN_500_rhum_165.txt.gz
RH
44 56 96 100 91 87 100 100 100 93 69 55 69 94 99 91 96 96 95 87 84 67 100 99 96 100 95 89 56 40 39 37 51 62 57 34 21 14 11 11 10 26 84 80 96 94 72 84 92 100 99 73 69 72
34 31 36 65 79 94 99 100 99 81 67 85 69 83 100 100 96 98 82 81 76 44 93 100 61 84 88 98 83 57 85 40 41 52 38 37 46 78 50 32 21 44 62 62 82 80 100 100 93 74 79 89 79 69
41 51 31 61 71 84 89 96 92 82 88 100 100 93 100 96 99 100 71 58 51 50 73 63 99 100 100 87 100 99 54 100 65 89 55 41 47 65 35 100 100 90 81 79 78 94 100 98 73 86 85 74 73 78
45 48 58 37 54 63 75 80 94 98 100 100 100 99 100 100 93 91 94 87 71 74 63 93 100 100 99 59 99 87 52 45 52 63 81 61 41 57 53 77 100 100 100 100 100 88 94 80 64 58 74 84 73 64
100 83 51 71 65 66 80 99 100 100 100 100 100 95 84 99 100 100 100 92 71 55 51 94 96 98 100 100 100 100 100 100 61 35 39 40 52 43 44 67 69 94 100 100 100 100 85 53 56 81 74 67 65 65
100 100 91 47 64 89 99 100 100 100 100 96 60 54 68 78 92 96 99 86 88 74 75 86 87 65 65 97 100 100 100 100 96 56 41 46 66 44 46 95 77 100 100 100 100 76 74 68 84 69 60 64 63 22
100 100 100 98 47 31 44 46 45 44 47 46 43 41 48 58 67 66 66 69 77 72 73 75 52 36 30 45 95 100 100 93 95 86 96 90 48 43 76 92 99 98 99 99 96 99 89 76 71 73 69 48 11 24
100 100 100 100 97 63 40 36 40 40 42 41 38 37 31 34 45 70 53 90 82 86 93 93 56 75 99 100 100 100 98 98 96 93 100 99 100 100 65 92 100 94 100 100 87 72 75 83 84 63 24 13 26 24
100 100 100 100 100 97 88 95 91 70 53 44 32 23 26 66 97 91 100 100 97 92 69 88 97 100 100 100 100 85 98 98 92 100 98 100 100 99 91 94 100 100 100 70 66 74 88 81 42 16 27 28 27 32
96 100 100 100 100 100 100 100 100 100 100 58 46 55 100 100 100 100 100 96 99 74 84 100 100 100 100 100 100 100 99 100 100 100 94 100 100 100 100 100 98 100 90 91 100 93 52 15 30 34 27 32 34 30
93 74 87 100 99 100 100 100 98 91 100 90 56 92 100 100 100 100 100 100 98 99 97 100 100 99 100 100 100 100 100 99 100 100 100 98 100 100 100 95 100 98 99 98 66 25 25 45 31 31 37 36 30 27
41 69 75 93 100 100 100 100 96 80 82 70 100 100 55 62 72 81 88 83 92 90 100 100 94 100 100 100 100 100 100 100 100 100 100 98 100 100 98 100 100 100 98 39 22 56 46 29 39 40 36 32 30 30
23 47 98 100 100 100 96 96 89 93 59 36 47 90 56 52 55 65 71 72 93 100 100 100 100 100 100 98 97 96 100 100 100 100 100 95 93 97 100 100 90 33 30 54 37 27 39 43 40 37 34 34 33 31
49 59 93 100 100 90 89 83 60 40 18 30 35 46 57 49 56 57 60 82 100 100 100 100 100 100 100 100 100 99 96 100 100 100 94 79 85 97 88 56 48 55 38 26 38 46 44 40 37 36 36 35 34 33
19 30 43 55 58 71 78 51 17 22 69 98 83 61 44 41 48 52 70 96 100 98 100 100 100 100 100 89 91 93 100 100 100 99 97 95 68 31 24 29 38 31 37 48 50 47 42 40 39 39 39 39 39 39
10 9 8 9 11 12 19 63 75 84 59 40 38 39 39 45 44 56 82 94 89 95 94 98 99 100 100 98 100 100 100 99 100 100 87 47 26 34 50 36 39 51 57 54 48 45 43 44 44 42 42 43 45 45
19 23 22 21 21 25 37 53 37 39 38 42 42 39 35 43 54 61 62 55 47 52 52 51 61 90 99 100 100 100 99 100 83 50 36 26 39 34 42 56 62 60 51 48 48 49 51 50 47 46 46 47 48 48
14 12 13 18 22 31 42 47 50 53 59 56 50 58 56 58 58 58 61 68 79 79 75 84 97 100 100 100 100 99 96 65 28 26 28 28 36 55 64 60 56 55 55 57 59 59 57 55 54 53 54 54 54 53
16 16 16 15 19 18 24 30 29 26 44 70 89 90 83 74 81 95 95 92 92 91 91 98 100 100 100 100 100 96 48 27 29 31 29 53 60 56 53 52 52 52 53 59 69 70 66 61 56 54 57 57 59 60
97 96 94 84 79 83 77 77 79 83 91 98 100 100 100 100 93 92 96 100 100 100 100 100 100 100 100 86 82 72 31 29 22 24 54 59 53 44 37 35 37 40 43 53 73 75 72 66 64 61 58 59 62 67
100 100 100 100 100 100 100 100 100 100 100 100 100 97 91 85 86 84 82 85 84 95 100 100 100 100 70 55 48 46 56 48 23 21 39 53 55 49 39 31 29 32 37 66 86 86 80 77 72 65 62 63 67 73
100 100 100 100 100 100 100 100 100 100 98 88 87 83 81 80 76 74 73 76 83 97 100 100 100 99 59 51 77 76 46 26 22 23 23 26 26 25 25 24 29 33 69 99 100 95 85 78 69 63 62 65 71 80
100 100 100 100 100 100 100 97 100 98 97 90 84 85 82 77 72 75 82 91 100 100 100 100 100 94 75 83 93 67 28 22 21 21 21 20 20 22 28 31 53 95 100 100 97 85 76 68 63 62 65 72 75 70
100 100 100 100 100 100 100 100 100 99 98 98 97 90 84 82 82 88 100 100 100 100 100 100 100 100 100 93 54 30 25 25 26 28 32 35 41 45 69 98 100 100 99 94 84 75 69 65 63 61 56 49 40 33
100 100 100 100 100 100 100 100 100 100 100 96 95 96 100 100 99 99 100 100 100 100 100 100 87 77 79 86 87 89 94 98 100 100 99 100 100 100 100 100 98 94 89 82 76 69 62 57 52 46 39 31 26 24
98 100 100 100 100 100 100 100 100 100 100 100 100 100 100 100 99 97 100 100 100 100 100 100 100 100 100 100 100 100 100 100 100 100 100 100 100 100 97 90 79 64 48 39 33 32 30 26 21 19 19 21 27 39
44 55 76 96 100 100 100 100 100 100 100 100 100 100 100 100 100 96 97 100 100 100 100 100 100 100 100 100 100 100 100 100 100 100 100 97 91 79 54 38 32 31 31 27 21 18 19 20 21 24 29 31 47 85
40 39 37 34 32 41 64 88 96 100 100 100 100 100 100 100 100 100 100 100 100 100 100 100 100 100 100 100 100 100 100 100 100 99 91 68 42 32 34 39 32 24 21 20 24 30 31 30 27 28 32 62 100 100
59 49 44 43 43 41 35 30 29 45 70 89 99 100 100 100 100 100 100 100 100 100 100 100 100 100 100 100 100 100 100 100 97 80 52 42 46 44 32 26 25 27 28 28 32 36 37 36 36 37 46 91 100 100
60 71 78 78 74 68 60 50 42 32 27 27 37 59 85 99 100 100 100 100 100 100 100 100 100 100 100 100 100 100 100 88 68 60 58 47 34 31 31 32 36 38 38 40 43 43 42 42 42 46 77 100 100 100
45 38 46 56 64 70 79 85 84 72 50 36 34 38 51 60 67 86 100 100 100 100 100 100 100 100 100 100 100 100 88 74 60 46 38 39 41 46 46 48 51 53 56 56 52 47 43 44 49 84 100 100 100 100
39 61 70 66 59 57 62 74 84 88 92 89 76 63 81 97 100 99 100 100 100 100 100 100 100 100 100 100 98 81 63 49 46 55 56 54 52 55 55 57 61 62 58 49 44 40 43 46 77 100 100 100 100 100
26 36 40 50 72 85 87 76 64 67 83 94 92 90 89 86 94 98 100 100 100 100 100 100 100 100 100 100 98 87 68 64 66 62 57 56 57 56 64 69 69 56 47 44 44 45 47 68 95 100 100 100 100 99

GFSWCAN_500_rhum_168.txt.gz
RH
77 72 46 47 51 91 100 100 87 84 100 100 99 97 79 95 99 99 100 100 100 100 100 92 100 99 100 96 81 61 55 60 60 89 96 96 83 76 64 47 35 20 19 18 20 36 62 63 56 62 87 95 91 74
37 27 34 41 41 96 91 78 85 100 100 100 83 52 97 100 100 100 95 100 100 97 100 100 100 95 84 59 60 61 70 85 78 59 47 56 63 71 57 40 36 22 21 21 24 24 20 12 22 37 62 100 90 98
30 34 38 53 34 58 82 86 89 96 94 100 67 49 43 100 100 99 100 100 91 91 76 64 58 100 86 71 78 100 95 88 100 98 71 72 60 68 100 97 70 48 25 17 20 15 19 40 47 62 62 73 86 75
80 60 44 52 30 58 88 86 92 87 89 79 63 70 59 73 99 100 97 96 94 70 37 46 68 98 77 87 88 100 87 60 100 100 100 69 52 54 50 50 68 57 92 74 89 49 40 39 46 90 100 98 64 73
100 100 90 57 38 38 66 66 67 76 79 89 96 100 78 79 92 94 82 68 52 49 33 54 83 97 85 77 100 100 76 92 77 100 100 100 100 83 61 42 41 37 76 98 100 100 100 100 100 81 99 81 81 83
100 100 100 62 64 62 69 79 96 100 100 100 100 100 93 100 99 100 98 64 65 53 32 29 39 34 54 97 100 93 88 72 57 46 54 42 45 46 53 46 35 46 55 94 100 100 99 94 88 96 100 100 86 64
100 100 100 97 54 69 90 100 100 100 100 100 100 100 100 100 100 100 100 100 100 100 90 55 36 80 89 84 88 76 77 90 82 75 69 82 56 32 30 35 43 37 87 100 100 100 100 100 100 100 97 80 70 66
100 100 100 100 86 38 58 96 97 93 86 75 53 52 90 100 100 100 100 100 93 84 61 42 68 80 86 91 69 76 91 100 100 100 88 96 62 35 34 44 61 86 100 100 100 100 100 100 100 92 83 77 64 33
100 100 100 100 98 56 31 33 38 42 46 45 45 44 50 63 93 92 63 100 85 84 89 52 61 69 60 56 81 89 93 86 69 67 58 66 84 52 42 54 100 100 100 98 100 100 98 86 90 86 76 61 20 21
94 100 100 100 100 77 63 50 40 41 39 33 30 62 64 46 50 52 100 97 60 96 79 74 60 88 99 100 100 99 98 100 100 99 100 97 68 61 85 80 84 83 100 100 100 100 100 99 84 67 23 22 30 30
80 100 100 100 100 91 81 69 45 27 21 29 74 88 85 86 100 100 100 100 99 100 100 100 100 100 99 100 100 100 100 100 100 100 100 82 86 100 100 100 95 97 100 100 100 100 92 61 19 21 36 46 46 40
61 100 100 100 100 95 83 67 36 22 55 87 95 98 100 100 99 100 97 96 100 100 100 100 100 100 100 100 100 100 100 100 100 100 100 96 100 97 100 96 100 99 100 100 99 79 28 21 53 54 43 41 38 34
75 100 94 100 93 90 82 71 63 59 67 87 98 100 100 98 85 98 95 100 100 100 100 100 100 100 100 100 100 100 100 100 100 100 100 100 100 100 100 100 99 100 100 99 36 15 57 56 35 43 43 38 37 36
87 73 91 87 88 90 84 74 54 56 76 78 74 79 82 83 91 100 100 100 100 100 100 100 100 100 100 89 92 95 99 100 100 100 99 98 100 100 100 100 100 100 68 21 55 62 33 45 47 43 40 38 37 36
57 71 91 96 99 84 82 65 49 55 59 50 42 43 41 64 96 98 100 100 100 100 100 100 100 100 100 100 100 100 100 99 98 91 89 98 97 100 98 76 35 35 76 64 32 45 51 50 45 42 40 39 39 40
100 96 100 98 84 87 68 50 28 23 36 46 40 41 53 68 64 78 98 100 100 100 100 100 100 99 100 100 100 100 97 92 90 93 98 99 86 65 74 66 59 53 33 45 55 55 50 47 44 43 43 43 43 44
22 18 47 70 82 75 40 19 32 46 45 50 68 58 50 58 68 85 92 92 80 70 65 65 61 60 90 100 100 98 99 98 99 100 92 25 16 21 39 60 36 45 57 59 54 51 49 48 48 48 48 48 47 48
12 12 29 59 70 53 49 47 44 51 50 51 48 45 46 57 62 65 67 62 58 52 50 58 68 90 100 99 97 99 97 98 96 80 72 26 25 32 43 49 61 61 55 53 54 55 56 58 58 57 56 54 52 52
27 30 35 47 70 67 85 55 54 70 72 56 51 52 54 59 59 54 53 54 64 85 97 100 99 100 96 90 91 95 100 89 44 23 24 27 38 59 64 59 55 53 52 52 53 58 68 73 75 73 68 63 60 59
35 39 41 40 44 50 50 54 57 59 58 70 77 86 76 64 55 59 80 86 90 96 99 100 100 100 100 100 100 100 81 48 26 26 31 46 58 58 51 46 41 37 38 38 35 38 62 86 92 88 81 78 74 69
100 95 83 69 61 54 56 56 60 68 84 88 99 100 100 100 99 96 95 99 100 100 100 100 100 100 100 100 100 100 64 32 25 24 28 40 57 57 55 50 44 38 28 28 31 38 76 97 100 96 90 81 72 67
100 100 99 99 99 100 97 97 97 100 95 95 92 89 95 96 93 89 87 88 93 98 96 98 100 100 100 99 75 66 48 41 47 40 26 40 48 54 55 45 35 28 26 28 33 77 99 100 100 90 78 72 67 65
100 100 100 100 100 98 100 90 90 88 88 93 93 95 94 90 88 82 79 77 79 82 92 100 100 100 100 86 56 64 85 81 55 41 28 26 29 30 29 28 26 28 31 55 96 100 100 98 91 83 76 70 64 59
100 100 100 100 100 100 100 100 100 100 100 100 100 99 97 94 87 82 82 87 97 100 100 100 100 100 100 95 66 72 96 100 71 34 27 26 25 26 27 32 48 84 99 100 100 100 97 87 75 63 53 46 38 29
100 100 100 100 100 100 100 100 100 100 100 100 98 99 100 98 90 83 94 100 99 100 100 100 100 100 100 100 100 100 96 62 43 38 39 40 61 93 100 100 100 100 100 99 96 83 58 43 39 37 30 18 15 16
76 89 94 99 100 100 100 100 100 100 100 99 99 100 100 98 97 100 100 99 94 100 100 100 100 100 100 88 80 86 96 99 100 100 100 100 100 100 100 100 100 99 93 71 44 39 38 30 20 17 16 17 20 23
44 46 49 55 68 88 98 100 100 100 100 100 100 100 98 96 97 100 100 100 100 100 100 100 100 100 100 100 100 100 100 100 100 100 100 100 100 100 100 98 88 63 46 46 44 31 22 20 22 23 26 28 28 30
54 48 44 44 43 41 40 42 52 67 84 94 100 100 98 99 100 100 100 100 100 100 100 100 100 100 100 100 100 100 100 100 100 100 100 100 100 100 93 80 61 53 47 31 23 22 25 28 31 35 37 37 37 37
31 40 52 58 56 50 44 42 40 38 36 36 42 60 84 98 100 99 99 100 100 100 100 100 100 100 100 100 100 100 100 100 100 100 100 100 99 92 76 65 55 34 28 28 32 33 34 38 39 39 40 41 42 44
23 27 32 34 39 50 66 72 68 60 53 50 46 39 32 31 44 77 98 100 100 100 100 100 100 100 100 100 100 100 100 100 100 100 100 100 91 78 69 44 35 36 37 38 38 37 38 42 39 38 40 42 45 64
16 18 20 26 36 46 46 46 51 64 77 83 82 72 60 52 41 33 33 49 75 99 100 100 100 100 100 100 100 100 100 100 100 100 100 95 85 59 44 44 44 45 48 45 42 38 40 39 37 39 42 45 65 99
15 14 12 13 16 19 30 50 61 62 60 61 72 88 99 97 85 65 54 57 69 83 96 100 100 100 100 100 100 100 100 100 100 100 99 85 65 58 58 58 56 62 60 54 46 42 40 42 41 42 43 52 81 96
16 14 13 12 13 14 15 18 20 33 65 78 73 70 77 99 100 100 100 100 100 100 100 100 100 100 100 100 100 100 100 100 100 100 100 91 85 86 91 85 77 74 69 60 53 47 51 50 52 59 74 88 96 98

GFSWCAN_500_rhum_174.txt.gz
RH
36 24 21 18 17 19 30 48 67 80 97 97 100 100 100 98 77 68 92 100 100 98 66 85 66 52 43 36 35 35 100 90 83 78 69 75 79 51 76 46 42 46 71 70 87 100 92 70 54 77 75 80 69 62
21 19 17 17 37 43 33 28 34 62 96 100 100 100 100 99 89 77 96 98 91 70 48 97 98 96 81 93 91 100 65 97 91 96 100 91 76 59 62 74 67 85 98 99 100 88 68 61 56 48 60 59 48 47
16 15 16 32 46 39 42 43 43 55 89 100 100 96 100 90 90 100 99 90 94 96 99 99 100 92 90 94 100 100 79 67 78 100 100 96 98 100 100 72 87 93 98 96 99 75 63 42 36 39 25 46 100 98
14 15 18 42 60 82 82 64 31 49 74 68 96 100 80 100 100 96 84 83 98 100 98 81 91 70 76 54 56 91 100 100 100 100 100 93 76 68 64 52 79 86 87 87 54 40 56 71 73 100 52 90 100 71
14 18 31 48 58 99 100 41 23 42 52 77 98 94 100 98 67 88 79 91 100 100 82 83 74 71 95 90 58 90 94 94 97 95 89 78 72 44 36 29 94 100 93 100 71 77 96 97 97 93 85 78 40 28
18 25 51 51 56 100 100 49 29 31 53 81 80 95 98 91 66 52 65 92 100 100 97 78 71 64 41 56 54 35 22 52 45 34 39 50 52 50 42 35 51 67 95 98 87 89 100 96 88 98 93 65 71 99
29 46 61 46 73 100 100 61 50 37 39 53 80 81 75 73 83 70 67 90 99 89 80 65 49 49 43 35 32 38 41 29 31 47 30 40 40 78 62 44 91 99 100 92 100 99 59 85 56 43 59 98 100 100
52 58 50 45 95 100 100 62 74 75 73 93 96 97 100 100 97 74 100 100 93 90 76 59 36 26 28 26 41 67 54 54 57 72 55 61 62 71 47 42 74 82 59 56 66 44 35 36 29 47 89 100 100 100
83 65 60 90 100 100 99 54 75 90 100 100 100 97 92 84 63 62 82 85 69 54 39 31 48 75 100 82 37 30 40 50 48 56 69 70 38 28 36 46 44 47 65 36 31 35 32 24 41 97 100 100 100 100
100 100 100 100 100 100 94 47 59 94 96 94 70 77 79 80 75 80 78 82 56 53 68 68 95 100 100 94 40 36 46 55 76 98 97 60 34 31 38 51 61 61 90 53 23 30 28 67 100 100 100 100 100 100
100 100 100 100 100 100 75 34 49 80 67 44 43 55 81 92 87 100 99 86 94 93 95 82 75 99 100 100 100 100 100 100 98 100 100 100 100 100 100 94 86 74 39 34 29 59 96 100 100 100 100 99 77 48
100 100 100 100 98 95 49 31 34 38 41 43 96 100 99 95 100 100 90 100 100 100 98 94 93 98 98 100 100 100 100 100 100 100 100 100 100 100 100 96 72 64 54 74 99 100 100 100 100 100 73 34 27 41
100 100 97 88 98 72 43 28 33 35 61 93 92 100 99 98 100 100 100 100 100 100 100 100 100 100 100 100 100 100 100 100 100 100 100 100 100 100 100 100 79 85 90 94 100 98 100 100 86 39 25 38 71 60
100 100 98 91 88 57 22 27 39 70 100 100 100 100 100 99 99 100 100 100 100 100 100 100 100 100 100 99 100 100 100 100 100 100 100 100 100 100 100 100 100 100 96 89 88 96 100 97 48 29 72 74 45 44
92 91 94 100 85 40 19 38 86 99 81 97 100 100 96 99 100 100 100 100 100 100 100 100 100 100 100 100 100 100 100 100 100 100 100 100 100 100 100 100 100 100 100 100 100 100 90 36 42 76 51 44 48 48
90 100 98 98 76 28 21 58 76 71 72 94 99 100 100 100 100 100 100 100 100 100 100 100 100 100 100 100 100 100 100 100 100 100 100 100 100 100 100 100 100 100 100 100 100 72 31 67 68 44 49 53 50 45
100 98 94 80 45 29 36 58 52 62 69 83 89 98 100 100 100 100 100 100 100 100 100 100 100 100 92 100 100 100 100 100 100 100 100 100 100 100 99 100 100 100 100 77 47 76 79 48 46 56 56 49 48 51
90 82 77 66 46 40 45 57 57 55 59 73 94 86 83 84 96 99 100 99 99 92 89 79 70 58 72 91 100 97 96 95 100 100 100 100 89 88 82 95 99 100 99 93 67 43 46 59 59 54 54 54 55 58
82 67 45 40 40 45 45 43 47 45 44 55 50 68 76 95 95 88 85 72 55 48 44 51 68 95 95 89 88 87 86 85 92 100 100 79 21 17 22 37 71 70 38 35 50 63 62 59 59 57 56 56 55 58
90 99 100 100 99 100 100 99 70 55 36 62 73 63 56 54 54 51 47 47 43 41 43 58 92 96 93 91 84 82 79 79 86 96 90 44 22 20 23 49 49 46 62 68 65 59 55 50 46 43 38 35 33 37
92 95 100 100 100 100 98 99 96 88 81 72 59 48 41 39 40 40 41 40 39 57 79 95 97 96 95 94 87 81 75 77 84 93 66 56 48 27 37 62 77 78 72 60 50 42 36 35 35 28 25 25 30 71
93 88 85 81 84 84 96 92 90 83 67 62 58 46 44 50 51 47 47 72 87 99 93 90 87 88 87 89 92 85 80 80 82 87 54 27 24 28 48 83 89 81 66 56 54 61 70 52 35 27 25 38 85 95
100 100 100 92 72 69 74 68 66 63 58 54 52 48 48 50 59 66 77 98 100 89 88 87 81 77 74 75 78 86 94 94 94 60 37 30 33 50 72 74 68 67 73 80 76 53 42 39 29 28 60 95 100 98
100 100 100 100 100 100 100 100 100 98 93 77 65 75 81 89 85 89 98 100 100 94 90 87 83 80 75 72 74 88 100 100 89 93 72 41 31 32 33 48 67 76 59 40 36 35 32 30 46 93 100 100 97 76
96 96 96 95 96 98 99 98 100 99 99 99 95 96 96 98 95 95 100 100 92 89 83 89 86 83 84 87 94 99 100 100 97 62 54 55 61 86 94 89 71 65 67 55 52 52 67 98 100 100 100 96 79 54
45 49 61 69 72 78 83 87 91 94 97 98 98 99 98 92 90 90 100 99 95 95 97 99 97 97 99 100 100 100 100 100 100 97 84 72 77 94 100 100 97 88 78 78 91 100 100 100 100 100 97 82 53 31
15 16 18 23 30 36 39 43 47 47 49 51 57 69 80 84 84 93 100 100 98 95 100 100 100 97 99 100 100 100 100 100 100 100 100 100 100 100 100 100 100 100 100 100 100 100 100 100 100 99 87 53 34 24
25 23 19 18 15 15 14 15 15 17 19 27 39 47 49 47 48 55 65 85 97 100 100 100 100 100 100 100 100 98 100 100 100 100 100 100 100 100 100 100 100 100 100 100 100 100 100 100 100 90 60 45 33 29
70 61 55 54 47 39 33 27 22 18 16 14 13 13 13 16 35 50 50 46 44 66 93 100 100 100 100 100 100 100 100 100 100 100 100 100 100 100 100 100 100 100 100 100 100 100 100 100 95 74 64 55 44 37
100 96 91 90 88 84 75 69 57 42 31 21 17 16 13 12 13 16 26 44 56 53 43 47 75 98 100 100 100 100 100 100 100 100 100 100 100 100 100 100 100 100 100 100 100 100 100 100 91 84 74 68 55 47
100 100 100 100 100 100 94 90 83 71 50 29 19 16 13 11 11 12 13 24 47 59 74 70 55 45 51 93 100 100 100 100 100 100 100 100 100 100 100 100 100 100 100 100 100 100 100 98 95 91 84 70 63 58
100 99 89 93 100 100 98 92 85 79 56 31 19 14 11 10 10 11 11 14 24 56 66 100 100 82 64 51 52 94 100 100 100 100 100 100 100 100 100 100 100 100 100 100 100 100 100 100 100 95 81 71 68 58
98 98 97 95 94 93 95 86 83 76 62 31 18 14 12 10 10 10 12 15 16 37 72 76 100 100 100 82 69 66 71 98 100 100 100 100 100 100 100 100 100 100 100 100 100 100 100 100 99 90 80 68 59 55

GFSWCAN_500_rhum_177.txt.gz
RH
63 47 37 39 40 29 22 18 17 18 21 27 37 51 64 79 87 83 84 98 99 88 45 96 88 84 81 80 65 44 43 44 63 54 42 76 96 100 100 94 99 89 76 60 44 50 96 100 100 100 100 97 89 87
51 44 41 31 23 20 17 19 38 38 31 32 42 70 99 100 100 96 85 94 88 75 58 76 78 74 72 65 61 40 36 34 45 64 85 95 95 100 100 100 96 90 92 80 60 35 52 95 100 99 100 98 91 88
34 26 22 19 18 16 19 43 38 45 55 48 44 71 100 100 100 100 98 88 82 86 63 51 97 100 79 91 97 60 50 60 69 60 96 100 80 78 94 100 79 80 76 82 61 39 59 50 70 99 88 100 86 73
18 18 18 17 16 17 33 55 76 90 68 25 31 89 98 92 100 94 74 92 100 80 65 86 89 91 90 96 99 100 100 100 100 100 93 71 100 100 84 94 84 82 78 80 79 69 74 81 100 100 89 64 89 80
18 17 17 16 17 20 47 49 99 89 36 22 25 51 76 100 76 85 94 98 100 99 80 100 97 92 89 100 99 99 100 100 100 100 100 100 100 100 82 61 51 53 44 42 60 76 92 69 61 60 32 36 58 100
17 16 16 17 21 37 52 52 100 73 37 27 49 68 84 91 100 89 86 100 100 100 87 70 71 90 68 76 100 100 100 94 100 100 100 100 63 56 60 56 42 51 32 29 51 54 64 100 89 98 100 100 97 85
18 17 19 24 31 58 50 82 100 65 43 28 34 54 71 77 74 77 75 68 85 100 82 55 70 65 59 53 41 80 66 46 57 80 69 58 40 44 42 36 23 30 30 44 56 56 34 61 92 100 100 87 60 55
24 24 28 34 61 60 56 100 99 66 59 47 44 77 79 80 75 73 79 62 93 95 100 69 48 46 36 33 32 42 47 51 42 33 28 25 24 27 21 19 27 60 88 99 88 75 80 98 97 90 62 52 36 29
58 66 72 78 60 51 94 100 97 67 86 94 89 94 98 98 100 90 55 83 94 67 60 40 28 28 26 23 25 31 27 20 23 26 23 27 30 25 39 49 42 82 97 96 80 48 31 47 39 34 33 28 24 70
91 100 100 98 95 100 100 100 86 68 96 93 88 89 86 72 69 64 56 64 58 48 22 19 21 52 72 98 100 100 35 27 33 59 75 61 80 100 35 21 27 36 54 45 46 41 40 31 32 30 20 16 74 92
91 100 100 100 100 100 100 99 60 71 78 59 52 64 95 98 90 99 95 74 60 56 53 63 91 99 97 95 99 91 94 97 90 100 99 94 100 100 100 100 70 49 46 42 30 26 21 22 24 24 37 92 99 98
65 99 100 100 100 100 100 54 46 71 41 48 90 99 94 88 97 97 98 100 100 100 100 100 100 100 100 100 99 96 100 96 90 100 99 99 100 100 100 100 100 91 65 49 44 39 32 44 93 100 97 98 100 92
46 100 98 100 100 100 62 31 38 41 50 80 76 82 86 99 97 100 100 100 100 100 100 100 100 100 100 100 96 100 100 100 100 99 100 100 100 100 100 98 100 99 97 99 99 99 100 100 100 100 100 87 30 21
78 100 99 93 100 75 44 22 31 34 62 80 81 86 100 100 100 100 100 100 100 100 100 100 100 100 100 100 100 100 100 100 100 100 100 100 100 100 100 98 96 93 84 92 97 100 100 100 100 84 44 21 29 66
99 100 90 92 79 61 23 26 33 56 70 71 81 93 100 98 100 100 100 100 100 100 100 100 100 100 100 100 100 100 100 100 100 100 100 100 100 100 100 100 100 100 100 100 96 100 100 100 94 46 23 66 65 47
98 95 89 80 72 20 18 27 50 69 71 63 69 89 98 100 100 100 100 100 100 100 100 100 100 100 100 100 100 100 100 100 100 100 100 100 100 100 100 100 100 99 100 100 100 100 100 89 34 39 74 48 51 54
99 91 78 80 31 16 24 42 60 67 64 99 91 94 100 100 99 98 100 100 100 100 100 100 100 100 100 100 100 100 100 100 100 100 100 100 100 100 100 100 100 100 100 100 100 100 77 25 66 66 52 56 54 50
88 82 61 22 17 23 43 60 47 50 69 88 98 100 100 98 98 100 100 100 100 100 100 100 100 94 81 92 100 100 100 100 99 93 98 99 99 96 92 100 100 100 100 99 72 41 73 85 70 60 60 55 57 62
78 58 53 56 67 61 59 54 47 47 64 78 86 86 85 82 91 100 100 99 99 82 71 64 61 76 98 100 100 100 99 96 91 87 92 95 94 60 58 65 84 97 99 99 93 75 54 55 65 61 60 59 50 40
34 61 91 98 100 98 78 59 48 52 58 61 66 63 70 82 91 87 79 76 61 56 53 52 55 65 78 97 100 100 99 94 88 83 91 95 87 24 15 21 47 73 39 28 33 56 69 66 60 53 42 36 32 28
94 98 100 100 100 100 97 72 70 64 53 43 50 65 63 56 51 48 50 52 63 69 54 68 86 100 100 100 100 100 100 91 82 82 90 95 74 28 20 20 37 49 54 66 78 80 69 54 44 44 56 56 42 30
100 100 100 96 98 93 98 88 76 78 68 76 74 62 57 59 56 57 54 63 79 66 59 79 90 96 95 96 92 88 84 81 77 77 82 88 66 60 51 31 34 62 86 92 88 78 69 68 80 93 80 53 44 31
100 100 100 96 77 70 80 76 72 71 70 72 70 66 64 57 53 49 45 62 68 71 67 76 83 85 89 88 83 77 72 72 78 82 87 81 71 38 25 34 62 74 76 73 70 67 79 89 68 42 43 40 36 66
100 100 100 96 97 95 96 99 96 91 87 81 65 63 64 63 55 57 80 97 92 89 93 88 86 87 86 84 82 80 75 76 81 94 98 96 55 35 29 42 70 76 74 69 71 77 78 69 62 60 54 61 98 100
62 71 72 78 83 93 99 100 100 99 98 98 94 95 92 86 77 80 93 95 93 88 85 84 82 82 82 80 84 82 80 86 92 100 100 97 85 88 70 47 38 38 45 86 96 93 92 96 93 84 92 100 100 100
16 16 19 21 24 27 31 37 45 49 52 56 57 60 62 67 72 74 78 83 88 91 94 96 96 97 96 94 98 95 89 95 100 100 100 100 100 77 68 66 62 89 100 100 100 100 100 95 98 100 100 100 100 100
56 42 30 25 22 21 19 17 16 15 14 14 14 15 17 17 18 22 28 34 41 51 65 82 94 96 99 100 100 100 96 96 100 100 98 100 100 100 100 94 94 100 100 100 100 100 100 100 100 100 100 100 100 99
98 97 97 92 85 75 69 61 57 52 44 37 32 26 22 19 17 15 14 13 12 15 28 43 50 72 95 100 100 100 100 100 100 100 100 100 100 100 100 100 100 100 100 100 100 100 100 100 100 100 100 100 100 99
100 100 100 100 100 100 100 100 95 96 93 90 86 81 69 56 39 28 23 20 17 15 13 12 20 44 50 71 100 100 100 100 100 100 100 100 100 100 100 100 100 100 100 100 100 100 100 100 100 100 100 100 100 100
98 97 96 100 100 100 100 100 98 99 99 100 95 87 86 85 71 53 39 25 20 15 12 11 12 14 44 50 45 85 100 100 100 100 100 100 100 100 100 100 100 100 100 100 100 100 100 100 100 100 100 100 99 99
98 92 93 97 99 100 100 100 100 100 100 100 100 97 93 87 80 62 38 25 19 14 10 9 11 12 20 54 66 51 61 100 100 100 100 100 100 100 100 100 100 100 100 100 100 100 100 100 100 100 100 100 100 100
98 97 79 86 98 100 100 100 100 100 100 100 100 100 98 91 80 63 39 26 18 11 9 9 10 13 16 30 80 99 81 60 83 100 100 100 100 100 100 100 100 100 100 100 100 100 100 100 100 100 100 100 100 100
76 83 81 74 82 94 99 95 96 97 100 100 100 100 97 87 75 54 38 22 12 9 9 10 11 13 16 26 60 100 100 100 88 92 100 100 100 100 100 100 100 100 100 100 100 100 100 100 100 100 100 100 100 98

GFSWCAN_500_rhum_183.txt.gz
RH
47 62 68 52 49 44 35 36 53 49 44 42 34 27 22 19 19 19 21 22 22 20 21 24 29 29 40 49 55 56 59 57 56 58 57 50 50 38 40 30 24 30 33 20 24 42 81 55 61 98 100 99 94 92
46 44 47 42 32 38 55 47 48 50 38 26 20 19 24 39 42 39 44 66 66 46 38 60 58 65 77 76 59 62 54 49 52 55 66 78 84 72 66 30 39 43 74 37 96 49 45 55 54 75 98 100 95 96
50 38 30 37 57 48 44 48 41 28 22 18 18 40 40 46 76 86 100 100 100 100 73 67 70 97 77 69 56 39 42 47 44 62 48 46 44 49 52 40 29 44 73 100 100 68 97 100 90 84 98 88 78 67
31 42 61 53 44 47 44 32 25 22 19 18 26 53 79 96 94 81 57 100 100 100 99 67 72 65 95 63 53 42 56 95 88 85 80 52 32 27 25 32 36 56 100 99 92 76 96 100 68 53 46 37 32 42
70 68 62 58 46 31 26 24 22 19 19 23 50 56 97 90 40 23 42 100 95 94 80 46 75 79 82 57 59 93 95 94 98 100 100 94 67 55 51 100 48 64 80 96 65 100 84 78 72 55 35 27 23 30
66 49 31 25 24 22 22 23 21 20 24 52 59 94 93 38 27 41 57 61 100 90 54 85 99 100 78 98 99 100 100 100 100 100 100 96 100 100 99 92 74 74 100 100 84 84 53 42 40 38 32 24 20 24
20 19 19 21 22 25 24 23 25 28 51 66 88 99 47 35 38 48 54 72 81 73 82 79 100 100 100 100 100 100 95 99 100 100 98 100 100 99 87 42 68 70 69 82 64 57 47 34 28 30 25 28 32 55
28 25 24 25 25 26 31 38 36 62 80 88 100 73 51 46 53 64 52 65 68 51 58 64 69 56 69 76 90 90 86 79 69 61 54 55 52 52 37 33 32 31 28 26 21 23 19 17 16 19 21 30 52 87
24 24 26 27 31 47 48 42 84 87 91 100 93 76 87 93 86 97 97 93 72 57 32 39 47 61 58 49 41 29 34 45 42 24 32 36 24 20 20 19 24 23 20 19 40 34 32 41 27 16 20 50 87 100
33 36 44 54 52 44 60 96 84 87 100 97 73 90 86 88 75 61 58 51 54 29 24 33 36 38 38 28 23 19 22 24 19 36 52 42 37 65 21 16 15 45 82 100 100 67 43 34 25 59 97 100 95 48
41 39 38 69 99 99 100 100 100 100 89 63 72 51 53 59 73 84 73 82 83 75 66 66 83 84 83 95 100 90 69 63 90 100 98 93 100 99 67 82 95 87 94 100 100 48 41 44 83 82 60 49 43 30
74 79 92 95 100 100 100 100 99 80 56 50 51 68 95 100 100 100 100 100 100 100 100 100 100 100 100 100 100 100 100 100 100 100 100 100 100 96 99 99 100 95 83 76 84 68 46 61 50 44 41 55 86 100
100 100 100 100 96 100 100 90 77 58 41 54 80 96 100 99 100 100 100 100 100 100 100 100 100 99 100 100 100 100 100 100 100 100 100 99 100 100 100 100 100 100 100 98 84 83 29 41 35 37 51 100 100 100
100 95 92 99 100 100 90 83 51 41 53 71 82 80 85 90 90 98 86 100 100 100 100 98 95 100 100 100 100 100 100 100 100 100 98 100 100 100 100 100 100 100 100 75 55 39 44 35 38 60 100 100 100 100
75 80 90 100 100 88 80 39 42 46 56 70 73 81 82 73 84 94 98 98 100 100 100 100 100 100 100 100 100 97 100 100 100 100 100 100 100 100 100 100 100 100 100 100 84 74 69 80 99 100 100 100 80 36
79 86 95 93 85 74 33 36 44 44 58 71 76 81 79 89 91 100 99 100 94 90 100 100 100 100 100 100 100 100 100 100 100 100 100 100 100 100 100 100 100 100 100 100 100 100 100 100 100 97 62 26 30 47
96 84 72 73 49 25 31 35 42 49 60 66 74 79 99 93 99 100 100 98 94 100 100 100 100 100 100 100 100 100 100 100 100 100 100 100 100 100 100 100 100 95 100 100 100 100 100 100 100 73 39 29 46 62
76 70 35 15 23 27 28 31 50 67 56 59 69 83 97 90 93 94 100 100 100 100 100 100 100 100 99 90 88 81 88 100 100 100 100 100 100 100 100 95 100 98 95 97 100 100 100 100 100 56 27 44 55 75
20 19 21 25 24 27 36 51 57 56 51 55 61 68 83 81 84 80 87 100 100 100 99 96 93 92 83 89 100 100 100 100 100 100 100 100 96 98 100 82 65 99 100 99 99 99 100 100 73 28 40 59 95 98
33 32 32 29 34 34 37 45 42 46 45 48 55 62 69 71 68 67 77 87 91 86 80 77 76 78 75 84 91 98 100 100 100 100 100 100 95 91 98 100 50 40 88 98 100 99 98 71 39 60 96 100 100 90
81 76 74 70 62 57 50 36 39 39 40 45 49 55 60 61 57 59 73 80 82 76 53 48 47 48 48 52 57 64 76 91 92 89 98 100 88 83 87 92 77 18 21 78 85 83 93 92 87 89 100 100 90 73
99 100 98 94 83 68 53 54 50 49 47 56 55 54 55 57 62 65 69 67 64 60 53 50 48 45 49 52 54 43 44 53 64 72 79 90 89 77 80 85 72 30 22 23 67 69 63 69 89 100 100 96 92 99
81 88 91 90 98 100 100 98 85 78 63 58 67 61 64 65 67 66 66 67 63 64 61 61 56 50 50 46 45 48 45 47 50 50 58 70 74 75 75 85 85 52 46 35 26 26 34 74 100 100 100 100 94 96
42 33 35 31 28 30 35 48 61 67 65 69 77 76 80 81 78 76 67 71 78 72 65 59 58 62 56 47 49 52 51 50 52 57 56 61 66 70 76 87 100 83 38 34 49 43 50 77 99 100 100 91 87 98
97 84 86 76 65 57 47 35 30 25 22 21 19 19 18 18 18 22 24 21 24 30 35 38 41 45 48 48 48 53 56 56 59 67 69 65 70 74 81 88 100 100 82 44 44 61 77 81 83 92 98 98 97 100
100 100 100 100 100 100 95 99 100 99 99 92 78 65 58 52 50 48 51 53 50 41 33 26 22 20 17 15 14 14 16 20 25 40 60 66 81 84 91 97 100 100 100 100 95 84 84 86 89 96 94 89 90 99
100 100 100 100 100 96 96 100 100 100 99 95 96 100 100 100 98 100 98 96 92 92 92 91 91 82 70 61 51 36 25 18 14 13 17 31 62 94 100 100 100 100 100 100 93 92 99 100 100 100 100 100 100 100
97 100 97 100 97 94 87 93 99 100 100 100 98 100 100 100 100 100 98 96 98 95 98 97 92 86 82 79 78 74 74 67 45 27 20 16 17 30 88 100 100 100 100 100 100 100 96 96 94 98 100 100 100 100
99 98 93 91 89 79 67 66 55 73 87 99 99 97 100 100 100 97 97 96 96 95 91 90 92 90 86 83 81 73 67 68 70 66 41 25 18 16 21 55 100 100 100 100 100 100 100 100 100 100 100 100 100 100
100 100 99 94 75 60 53 47 36 36 42 55 60 65 86 100 100 99 100 100 99 96 94 90 89 86 80 75 72 70 72 70 68 66 59 42 30 20 15 20 48 100 100 100 100 100 100 100 100 100 100 100 100 100
100 92 84 68 46 40 27 17 16 18 20 26 43 40 45 70 95 100 100 100 100 100 95 88 83 79 77 76 69 62 64 63 57 51 45 41 29 17 13 15 29 93 100 100 100 100 100 98 100 100 100 100 100 100
64 48 29 17 11 10 10 10 10 10 12 16 22 26 36 58 82 88 99 100 100 98 96 91 88 89 84 78 72 65 59 49 29 21 16 12 8 9 11 18 67 100 100 100 100 100 100 100 100 100 100 99 100 100
24 17 12 10 9 9 9 9 9 9 11 13 17 23 41 77 98 96 100 100 100 100 100 100 100 97 88 78 68 61 46 27 12 9 9 9 9 12 16 76 100 100 100 100 100 100 100 100 100 100 99 99 100 100

GFSWCAN_500_rhum_186.txt.gz
RH
100 87 62 47 35 40 52 47 43 46 47 39 45 50 44 39 34 28 21 18 17 17 18 20 22 24 30 40 48 52 57 61 68 68 68 63 56 49 46 33 32 29 34 27 32 42 31 19 15 13 18 39 54 58
100 96 77 48 42 63 59 46 42 38 50 49 46 40 28 22 19 18 30 36 36 44 54 65 52 60 70 65 52 54 38 35 42 59 72 80 63 41 37 29 25 26 34 45 51 33 22 30 64 75 100 80 45 56
62 55 47 48 53 47 40 36 50 49 46 43 31 23 19 19 34 42 51 75 92 84 52 49 68 80 65 69 66 48 55 64 52 57 43 41 34 31 27 26 27 24 28 52 36 23 42 48 100 100 100 76 95 80
27 38 46 46 38 34 48 50 46 46 35 24 21 19 20 27 53 78 91 98 97 89 67 57 83 93 80 64 56 50 52 56 53 58 49 37 47 82 60 69 22 17 22 28 36 32 99 83 93 98 80 83 60 55
62 46 34 35 50 53 44 47 40 25 21 21 20 20 28 54 66 100 91 50 36 40 44 62 76 99 83 55 52 65 75 82 98 100 96 68 92 100 97 61 72 95 99 100 62 81 82 69 94 83 67 85 64 46
31 38 58 58 52 54 46 26 24 23 23 23 25 32 61 72 100 80 37 34 34 42 50 49 83 76 47 93 100 100 100 97 100 92 97 79 78 100 98 70 60 99 94 90 61 96 52 47 56 63 61 54 41 29
58 69 70 64 45 28 25 26 26 26 29 35 42 70 85 100 76 47 47 43 40 47 52 76 100 100 100 100 100 100 95 96 90 94 82 83 100 99 94 54 64 92 98 73 66 61 49 48 41 54 41 27 26 26
57 39 26 24 24 25 26 26 28 41 45 50 85 95 100 85 58 61 70 68 76 62 46 45 100 98 88 80 87 94 90 74 75 68 48 69 72 68 31 29 27 43 60 43 37 42 34 32 27 22 23 32 27 21
28 29 29 28 26 26 28 31 51 53 72 96 98 100 94 78 89 89 78 86 98 86 48 30 71 75 50 42 38 39 38 41 50 37 42 42 29 24 63 27 22 24 20 20 24 25 24 23 51 62 62 28 23 19
32 31 29 27 29 31 42 60 57 93 93 97 100 93 79 73 50 44 35 33 33 33 31 34 48 50 47 34 28 24 20 22 21 26 70 47 41 100 100 100 97 63 55 27 26 26 49 97 100 81 81 62 20 23
27 29 32 34 47 65 66 79 100 100 98 100 73 52 39 73 98 100 99 100 100 98 99 85 91 72 90 100 95 100 100 100 100 100 100 93 100 100 95 100 100 100 100 84 88 98 98 95 61 38 18 22 85 99
58 57 59 57 62 95 100 100 99 86 96 60 39 76 95 98 99 96 95 96 100 100 100 100 100 100 100 100 100 100 100 98 100 100 100 100 99 96 100 100 100 100 98 92 96 100 85 26 15 21 58 52 46 58
71 67 60 80 85 100 100 96 96 93 53 57 85 83 66 53 71 74 88 98 100 100 100 100 100 100 100 100 100 100 100 100 100 100 100 98 100 100 100 100 100 100 100 100 90 95 87 37 45 51 38 37 42 90
94 100 100 100 100 100 100 100 81 45 68 84 68 63 71 76 83 86 97 96 100 100 100 100 100 99 100 100 100 100 100 100 100 100 100 100 100 100 100 100 100 100 100 100 58 72 68 32 32 32 33 36 94 100
98 98 96 100 100 100 100 81 42 57 82 72 68 83 78 84 90 100 100 100 100 100 96 100 100 100 100 100 100 99 100 100 100 100 100 100 100 100 100 100 100 100 100 100 91 50 32 24 27 34 48 97 100 100
84 90 98 100 100 99 80 40 48 68 76 80 77 80 83 99 100 100 96 100 100 97 100 100 100 100 100 100 100 100 100 100 100 100 100 100 100 100 100 100 99 100 100 100 100 100 88 79 82 96 100 100 100 73
100 95 89 83 77 54 35 43 54 61 74 76 77 81 98 98 100 99 97 98 100 91 93 98 100 100 100 100 100 100 100 100 100 100 100 100 100 100 100 100 100 100 100 95 99 100 99 100 100 100 100 74 34 43
72 69 74 72 51 31 34 43 50 62 65 66 71 81 96 92 97 96 94 97 100 96 97 99 100 100 100 100 100 100 100 100 100 100 100 100 100 100 100 100 92 82 100 100 100 100 99 98 100 100 68 31 41 53
49 34 19 18 25 28 33 41 50 56 52 54 58 59 66 76 83 86 81 76 91 91 95 100 100 89 93 87 77 91 99 96 100 100 100 100 100 100 98 97 100 76 72 98 100 100 100 100 100 100 93 44 39 54
24 26 25 24 26 27 31 44 46 55 48 48 49 47 48 51 61 66 65 63 68 81 84 87 82 63 56 55 57 46 44 51 66 91 100 96 94 100 100 92 98 98 39 43 86 100 100 100 100 100 50 35 46 82
52 40 33 25 27 29 33 36 39 38 41 43 44 41 42 47 53 56 58 57 61 68 74 73 69 59 51 46 44 44 43 40 32 28 36 69 76 78 92 96 86 92 79 26 21 73 84 98 100 94 80 76 98 100
99 100 98 91 80 72 60 62 50 43 39 40 40 44 44 51 59 60 55 54 54 58 62 62 58 55 51 47 44 40 39 38 35 33 30 29 35 49 64 73 86 86 87 68 28 18 66 83 85 94 98 97 93 100
54 49 42 44 60 84 100 99 81 72 59 56 69 71 78 86 81 77 68 62 63 71 68 70 62 54 54 50 45 40 36 39 43 43 38 35 36 39 43 58 68 73 82 85 65 38 22 26 39 47 52 51 94 100
100 100 93 90 84 74 62 47 42 42 42 41 36 32 28 28 32 37 47 48 47 53 59 64 64 63 62 58 56 55 52 48 43 45 43 39 47 52 50 51 63 71 74 81 97 61 29 30 31 24 27 44 99 100
89 92 92 93 95 99 100 100 100 100 99 100 96 100 100 97 85 73 63 56 44 34 27 23 21 21 21 20 20 18 18 18 19 18 16 21 25 29 44 59 67 79 82 89 100 100 70 39 32 34 43 44 71 100
100 94 96 93 90 92 89 96 97 98 99 100 97 99 100 96 94 84 96 100 100 100 100 97 96 95 93 89 86 81 81 78 67 52 41 24 16 14 14 23 53 88 88 97 100 100 100 92 64 59 61 62 76 96
100 100 100 99 99 95 88 92 99 100 96 84 75 73 84 86 79 93 96 98 99 98 97 98 96 93 91 90 90 92 92 87 80 71 70 74 70 54 32 19 14 28 77 100 100 100 100 100 100 100 95 94 97 100
100 100 100 100 100 100 100 100 99 86 75 69 60 54 49 47 55 70 91 100 100 100 100 100 99 96 94 94 90 87 86 83 80 78 74 71 68 69 72 64 43 19 18 50 100 100 100 100 100 100 100 100 100 100
100 100 100 100 99 95 94 86 60 54 49 44 34 26 25 26 31 34 45 61 88 100 100 100 100 99 96 93 90 86 81 76 74 78 78 76 72 68 58 63 71 55 24 18 41 100 100 100 100 100 100 100 100 100
100 100 96 85 64 48 46 47 29 21 17 14 12 11 12 14 17 18 22 35 56 73 79 98 99 98 94 93 96 99 93 82 73 66 65 70 69 64 62 62 65 63 46 24 18 44 98 100 100 100 100 100 100 100
100 100 98 87 62 35 23 16 12 11 10 10 10 10 10 10 10 12 15 23 36 49 79 94 94 91 93 91 86 84 84 84 75 70 63 56 52 54 56 53 53 52 45 31 21 19 54 100 100 100 100 100 100 100
100 100 96 81 52 27 15 11 10 10 10 10 10 10 10 10 11 12 14 20 24 43 61 85 94 95 91 92 87 82 80 83 81 77 71 61 53 47 42 30 21 20 17 17 15 19 46 100 100 100 100 100 100 100
100 100 90 70 37 18 12 10 10 9 8 9 11 11 13 14 17 17 22 22 36 62 89 95 99 100 100 98 94 97 100 98 88 76 64 54 43 24 13 10 9 9 10 12 19 85 100 100 100 100 100 100 100 100